• Em Portugal
  • Lista de países
  • Para 7 dias
  • Temperatura da água
  • Mapas de satélite
  • Mapa do tempo
  • Widgets de tempo
  • user-avatar
    Iniciar Sessão

    Previsão horária em Adapazari

    Hoje, 20 Outubro, Sexta-feira

    Tempo Temperatura Precipitação Vento Pressão Humidade
    00:00 +16°C° 0 mm 1 m/s 730 mmHg 49%
    01:00 +16°C° 0 mm 1 m/s 730 mmHg 49%
    02:00 +15°C° 0 mm 1 m/s 730 mmHg 48%
    03:00 +15°C° 0 mm 1 m/s 730 mmHg 48%
    04:00 +15°C° 0 mm 1 m/s 730 mmHg 48%
    05:00 +14°C° 0 mm 1 m/s 730 mmHg 48%
    06:00 +16°C° 0 mm 1 m/s 730 mmHg 46%
    07:00 +18°C° 0 mm 1 m/s 730 mmHg 44%
    08:00 +19°C° 0 mm 1 m/s 731 mmHg 43%
    09:00 +21°C° 0 mm 1 m/s 731 mmHg 39%
    10:00 +23°C° 0 mm 1 m/s 731 mmHg 35%
    11:00 +25°C° 0 mm 1 m/s 731 mmHg 31%
    12:00 +25°C° 0 mm 1 m/s 731 mmHg 30%
    13:00 +26°C° 0 mm 1 m/s 731 mmHg 30%
    14:00 +26°C° 0 mm 2 m/s 730 mmHg 29%
    15:00 +24°C° 0 mm 2 m/s 730 mmHg 35%
    16:00 +23°C° 0 mm 1 m/s 730 mmHg 41%
    17:00 +21°C° 0 mm 1 m/s 730 mmHg 47%
    18:00 +20°C° 0 mm 1 m/s 730 mmHg 51%
    19:00 +19°C° 0 mm 1 m/s 730 mmHg 54%
    20:00 +18°C° 0 mm 1 m/s 730 mmHg 57%
    21:00 +16°C° 0 mm 1 m/s 730 mmHg 57%
    22:00 +16°C° 0 mm 1 m/s 730 mmHg 58%
    23:00 +16°C° 0 mm 1 m/s 730 mmHg 58%

    Amanhã, 21 Outubro, Sábado

    Tempo Temperatura Precipitação Vento Pressão Humidade
    00:00 +16°C° 0 mm 1 m/s 730 mmHg 59%
    01:00 +15°C° 0 mm 1 m/s 730 mmHg 59%
    02:00 +15°C° 0 mm 1 m/s 730 mmHg 59%
    03:00 +15°C° 0 mm 1 m/s 730 mmHg 60%
    04:00 +14°C° 0 mm 1 m/s 730 mmHg 60%
    05:00 +14°C° 0 mm 1 m/s 730 mmHg 61%
    06:00 +15°C° 0 mm 1 m/s 730 mmHg 58%
    07:00 +16°C° 0 mm 1 m/s 730 mmHg 55%
    08:00 +18°C° 0 mm 1 m/s 730 mmHg 53%
    09:00 +20°C° 0 mm 1 m/s 730 mmHg 47%
    10:00 +22°C° 0 mm 1 m/s 730 mmHg 41%
    11:00 +24°C° 0 mm 1 m/s 730 mmHg 36%
    12:00 +24°C° 0 mm 1 m/s 730 mmHg 34%
    13:00 +24°C° 0 mm 2 m/s 730 mmHg 33%
    14:00 +25°C° 0 mm 2 m/s 729 mmHg 32%
    15:00 +23°C° 0 mm 2 m/s 729 mmHg 37%
    16:00 +20°C° 0 mm 2 m/s 729 mmHg 43%
    17:00 +20°C° 0 mm 1 m/s 729 mmHg 49%
    18:00 +19°C° 0 mm 1 m/s 729 mmHg 52%
    19:00 +18°C° 0 mm 1 m/s 729 mmHg 56%
    20:00 +16°C° 0 mm 1 m/s 729 mmHg 59%
    21:00 +15°C° 0 mm 1 m/s 729 mmHg 59%
    22:00 +15°C° 0 mm 1 m/s 729 mmHg 60%
    23:00 +15°C° 0 mm 1 m/s 729 mmHg 60%

    Depois de amanhã, 22 Outubro, Domingo

    Tempo Temperatura Precipitação Vento Pressão Humidade
    00:00 +14°C° 0 mm 1 m/s 729 mmHg 60%
    01:00 +14°C° 0 mm 1 m/s 728 mmHg 60%
    02:00 +14°C° 0 mm 1 m/s 728 mmHg 60%
    03:00 +13°C° 0 mm 1 m/s 728 mmHg 60%
    04:00 +13°C° 0 mm 1 m/s 728 mmHg 60%
    05:00 +13°C° 0 mm 1 m/s 728 mmHg 59%
    06:00 +14°C° 0 mm 1 m/s 728 mmHg 56%
    07:00 +15°C° 0 mm 1 m/s 728 mmHg 52%
    08:00 +16°C° 0 mm 1 m/s 728 mmHg 49%
    09:00 +19°C° 0 mm 1 m/s 728 mmHg 43%
    10:00 +21°C° 0 mm 1 m/s 729 mmHg 37%
    11:00 +23°C° 0 mm 1 m/s 729 mmHg 31%
    12:00 +24°C° 0 mm 1 m/s 728 mmHg 31%
    13:00 +24°C° 0 mm 2 m/s 728 mmHg 31%
    14:00 +24°C° 0 mm 2 m/s 728 mmHg 31%
    15:00 +23°C° 0 mm 2 m/s 727 mmHg 38%
    16:00 +20°C° 0 mm 2 m/s 727 mmHg 45%
    17:00 +18°C° 0 mm 2 m/s 727 mmHg 52%
    18:00 +18°C° 0 mm 1 m/s 727 mmHg 57%
    19:00 +16°C° 0 mm 1 m/s 727 mmHg 61%
    20:00 +15°C° 0 mm 1 m/s 728 mmHg 66%
    21:00 +15°C° 0 mm 1 m/s 727 mmHg 67%
    22:00 +14°C° 0 mm 1 m/s 727 mmHg 68%
    23:00 +14°C° 0 mm 1 m/s 727 mmHg 68%

    23 Outubro, Segunda-feira

    Tempo Temperatura Precipitação Vento Pressão Humidade
    00:00 +14°C° 0 mm 1 m/s 727 mmHg 68%
    01:00 +14°C° 0 mm 1 m/s 727 mmHg 67%
    02:00 +14°C° 0 mm 1 m/s 726 mmHg 67%
    03:00 +13°C° 0 mm 1 m/s 726 mmHg 66%
    04:00 +13°C° 0 mm 1 m/s 726 mmHg 65%
    05:00 +13°C° 0 mm 1 m/s 725 mmHg 64%
    06:00 +14°C° 0 mm 2 m/s 725 mmHg 60%
    07:00 +15°C° 0 mm 2 m/s 725 mmHg 56%
    08:00 +16°C° 0 mm 2 m/s 725 mmHg 52%
    09:00 +18°C° 0 mm 2 m/s 725 mmHg 45%
    10:00 +21°C° 0 mm 2 m/s 725 mmHg 38%
    11:00 +24°C° 0 mm 2 m/s 725 mmHg 30%
    12:00 +24°C° 0 mm 2 m/s 724 mmHg 29%
    13:00 +25°C° 0 mm 2 m/s 724 mmHg 27%
    14:00 +26°C° 0 mm 2 m/s 723 mmHg 26%
    15:00 +24°C° 0 mm 2 m/s 723 mmHg 31%
    16:00 +21°C° 0 mm 2 m/s 722 mmHg 37%
    17:00 +20°C° 0 mm 1 m/s 722 mmHg 42%
    18:00 +20°C° 0 mm 1 m/s 722 mmHg 44%
    19:00 +19°C° 0 mm 1 m/s 722 mmHg 46%
    20:00 +18°C° 0 mm 1 m/s 722 mmHg 48%
    21:00 +16°C° 0 mm 1 m/s 722 mmHg 47%
    22:00 +16°C° 0 mm 1 m/s 722 mmHg 46%
    23:00 +16°C° 0 mm 2 m/s 722 mmHg 45%

    24 Outubro, Terça-feira

    Tempo Temperatura Precipitação Vento Pressão Humidade
    00:00 +16°C° 0 mm 2 m/s 721 mmHg 44%
    01:00 +15°C° 0 mm 2 m/s 721 mmHg 43%
    02:00 +15°C° 0 mm 2 m/s 721 mmHg 42%
    03:00 +15°C° 0 mm 2 m/s 721 mmHg 42%
    04:00 +15°C° 0 mm 2 m/s 721 mmHg 42%
    05:00 +14°C° 0 mm 2 m/s 721 mmHg 42%
    06:00 +15°C° 0 mm 2 m/s 721 mmHg 43%
    07:00 +16°C° 0 mm 2 m/s 722 mmHg 43%
    08:00 +17°C° 0 mm 2 m/s 722 mmHg 43%
    09:00 +19°C° 0 mm 3 m/s 722 mmHg 40%
    10:00 +21°C° 0 mm 3 m/s 722 mmHg 36%
    11:00 +25°C° 0 mm 4 m/s 722 mmHg 32%
    12:00 +25°C° 0 mm 4 m/s 722 mmHg 32%
    13:00 +25°C° 0 mm 4 m/s 722 mmHg 32%
    14:00 +25°C° 0 mm 5 m/s 722 mmHg 32%
    15:00 +22°C° 0,1 mm 4 m/s 721 mmHg 39%
    16:00 +21°C° 0,1 mm 3 m/s 721 mmHg 46%
    17:00 +19°C° 0,1 mm 3 m/s 721 mmHg 53%
    18:00 +19°C° 0 mm 3 m/s 722 mmHg 54%
    19:00 +18°C° 0 mm 3 m/s 722 mmHg 56%
    20:00 +18°C° 0 mm 3 m/s 722 mmHg 57%
    21:00 +18°C° 0 mm 3 m/s 722 mmHg 59%
    22:00 +17°C° 0 mm 2 m/s 722 mmHg 60%
    23:00 +17°C° 0 mm 2 m/s 722 mmHg 62%

    25 Outubro, Quarta-feira

    Tempo Temperatura Precipitação Vento Pressão Humidade
    00:00 +17°C° 0 mm 2 m/s 722 mmHg 63%
    01:00 +17°C° 0 mm 2 m/s 722 mmHg 64%
    02:00 +17°C° 0 mm 2 m/s 722 mmHg 65%
    03:00 +16°C° 1 mm 2 m/s 723 mmHg 69%
    04:00 +16°C° 1 mm 2 m/s 723 mmHg 73%
    05:00 +16°C° 1 mm 2 m/s 723 mmHg 76%
    06:00 +16°C° 0,8 mm 2 m/s 724 mmHg 77%
    07:00 +16°C° 0,8 mm 2 m/s 724 mmHg 77%
    08:00 +17°C° 0,8 mm 2 m/s 724 mmHg 78%
    09:00 +18°C° 0,2 mm 2 m/s 725 mmHg 74%
    10:00 +18°C° 0,2 mm 2 m/s 725 mmHg 70%
    11:00 +19°C° 0,2 mm 3 m/s 725 mmHg 66%
    12:00 +19°C° 0,5 mm 3 m/s 725 mmHg 66%
    13:00 +19°C° 0,5 mm 3 m/s 725 mmHg 66%
    14:00 +19°C° 0,5 mm 3 m/s 726 mmHg 66%
    15:00 +19°C° 0,3 mm 3 m/s 726 mmHg 70%
    16:00 +18°C° 0,3 mm 2 m/s 726 mmHg 73%
    17:00 +17°C° 0,3 mm 2 m/s 726 mmHg 77%
    18:00 +17°C° 0,4 mm 2 m/s 726 mmHg 79%
    19:00 +16°C° 0,4 mm 2 m/s 727 mmHg 82%
    20:00 +15°C° 0,4 mm 2 m/s 727 mmHg 85%
    21:00 +15°C° 1 mm 1 m/s 727 mmHg 86%
    22:00 +15°C° 1 mm 1 m/s 728 mmHg 88%
    23:00 +15°C° 1 mm 1 m/s 728 mmHg 89%
    Mostrar mais